Location: Madden
(51.3728°N, 114.3297°W)
Time: 06:39:30
(UTC+00:00)

PCSat - Pass Details

Date: 08 December 2023
Orbit: 784 x 791 km, 67.0° (Epoch: 02 March)

Event Time Altitude Azimuth Distance (km) Brightness Sun altitude
Exits shadow 10:57:26 17° 53° (NE) 1,919 12.0 -41.0°
Drops below altitude 10° 10:58:41 10° 47° (NE) 2,359 12.6 -40.8°
Sets 11:01:12 0° 41° (NE) 3,294 13.4 -40.4°
